Regional Weather Roundup
Issued by NWS

Home | Current Version | Previous Version | Text Only | Print | Product List | Glossary On
Versions: 1 2 3 4 5 6 7 8 9 10 11 12 13 14 15 16 17 18 19 20 21 22 23 24 25 26 27 28 29 30 31 32 33 34 35 36 37
000
ASUS42 KKEY 231810
RWRKEY

FLORIDA REGIONAL WEATHER ROUNDUP FOR THE FLORIDA KEYS
NATIONAL WEATHER SERVICE KEY WEST FLORIDA
200 PM EDT THU OCT 23 2014

...SOUTH FLORIDA AND THE KEYS...

CITY           SKY/WX    TMP DP  RH WIND       PRES   REMARKS
FORT MYERS     MOSUNNY   83  67  58 E13       29.90F
SW REGIONAL AP MOSUNNY   82  66  58 E16G23    29.91F
NAPLES         MOSUNNY   83  70  64 NE20      29.88F
MIAMI          LGT RAIN  78  72  81 NE14G22   29.89F
WEST KENDALL   MOSUNNY   85  71  63 E8        29.88F HX  90
HOMESTEAD      PTSUNNY   81  71  70 NE15      29.88F
MARATHON       RAIN      77  76  96 SE9       29.85F FOG
BOCA CHICA NAS LGT RAIN  78  74  87 NE14G22   29.85F
KEY WEST INTL  CLOUDY    78  76  93 NE8G23    29.86F

...INTERNATIONAL WEATHER...

CITY           SKY/WX    TMP DP  RH WIND       PRES   REMARKS
NASSAU BAHAMAS LGT RAIN  77  77 100 SE5       29.91F
CANCUN MEXICO  PTSUNNY   84  77  79 NE3       29.79F HX  94
COZUMEL MEXICO PTSUNNY   81  77  89 N7        29.80F

ADJACENT COASTAL WATERS...

STATION/POSITION TIME  SKY/WX   TEMP    WIND        PRES    WAVE
                                AIR SEA DIR/SP/G            HT/PER
                 (UTC)          (F)     (DEG/KT/KT) (MB)    (FT/S)
PULASKI SHOAL LI 1700            80      70/ 21/ 22 1011.4F
SAND KEY         1737            75     100/ 19/ 23 1011.1F
SOMBRERO KEY     1800            79     120/ 18/ 19 1011.1F
LONG KEY         1700            78 79   50/ 14/ 15 1012.5F
MOLASSES REEF    1800            75 83  140/ 13/ 14 1011.5F
FOWEY ROCKS      1800            79 80   40/ 10/ 12 1012.0F
Buoy 42080       NOT AVBL

$$



USA.gov is the U.S. government's official web portal to all federal, state and local government web resources and services.